When you browse on this site, cookies collect data to enhance your experience and personalize the content and advertising you see.
Visit our Privacy Policy to learn more. By continuing to use the site, you agree to this use of cookies and data.
  • In Hungary
  • List of Countries
  • For 7 days
  • Water Temperature
  • Weather Map
  • News
  • Weather Widgets
  • user-avatar
    Login

    Hourly Weather Varenovka

    Today, 18 October, Friday

    Time Temperature Precipitation Wind Pressure Humidity
    00:00 +14°C° 0 mm 4 mps 761 mmHg 71%
    01:00 +13°C° 0 mm 4 mps 761 mmHg 74%
    02:00 +13°C° 0 mm 4 mps 761 mmHg 76%
    03:00 +12°C° 0 mm 3 mps 761 mmHg 78%
    04:00 +12°C° 0 mm 3 mps 761 mmHg 81%
    05:00 +12°C° 0 mm 3 mps 760 mmHg 83%
    06:00 +11°C° 0 mm 3 mps 760 mmHg 85%
    07:00 +12°C° 0 mm 3 mps 760 mmHg 82%
    08:00 +13°C° 0 mm 3 mps 761 mmHg 79%
    09:00 +13°C° 0 mm 3 mps 761 mmHg 76%
    10:00 +16°C° 0 mm 3 mps 760 mmHg 70%
    11:00 +17°C° 0 mm 3 mps 760 mmHg 64%
    12:00 +19°C° 0 mm 2 mps 760 mmHg 59%
    13:00 +19°C° 0 mm 2 mps 760 mmHg 56%
    14:00 +20°C° 0 mm 2 mps 760 mmHg 54%
    15:00 +22°C° 0 mm 1 mps 759 mmHg 51%
    16:00 +21°C° 0 mm 1 mps 759 mmHg 54%
    17:00 +20°C° 0 mm 1 mps 759 mmHg 57%
    18:00 +19°C° 0 mm 1 mps 759 mmHg 60%
    19:00 +19°C° 0 mm 1 mps 760 mmHg 62%
    20:00 +17°C° 0 mm 2 mps 760 mmHg 64%
    21:00 +17°C° 0 mm 2 mps 760 mmHg 66%
    22:00 +16°C° 0 mm 2 mps 760 mmHg 66%
    23:00 +16°C° 0 mm 3 mps 760 mmHg 67%

    Tomorrow, 19 October, Saturday

    Time Temperature Precipitation Wind Pressure Humidity
    00:00 +14°C° 0 mm 3 mps 760 mmHg 67%
    01:00 +14°C° 0 mm 3 mps 760 mmHg 68%
    02:00 +13°C° 0 mm 3 mps 760 mmHg 69%
    03:00 +13°C° 0 mm 3 mps 760 mmHg 70%
    04:00 +13°C° 0 mm 3 mps 760 mmHg 70%
    05:00 +13°C° 0 mm 3 mps 761 mmHg 70%
    06:00 +12°C° 0 mm 3 mps 761 mmHg 70%
    07:00 +13°C° 0 mm 3 mps 761 mmHg 66%
    08:00 +14°C° 0 mm 3 mps 761 mmHg 63%
    09:00 +16°C° 0 mm 3 mps 762 mmHg 59%
    10:00 +18°C° 0 mm 3 mps 762 mmHg 54%
    11:00 +19°C° 0 mm 3 mps 762 mmHg 50%
    12:00 +21°C° 0 mm 3 mps 762 mmHg 45%
    13:00 +21°C° 0 mm 3 mps 762 mmHg 43%
    14:00 +22°C° 0 mm 3 mps 762 mmHg 42%
    15:00 +22°C° 0 mm 3 mps 761 mmHg 40%
    16:00 +21°C° 0 mm 3 mps 761 mmHg 43%
    17:00 +20°C° 0 mm 3 mps 762 mmHg 47%
    18:00 +19°C° 0 mm 2 mps 762 mmHg 50%
    19:00 +18°C° 0 mm 3 mps 762 mmHg 51%
    20:00 +17°C° 0 mm 3 mps 762 mmHg 53%
    21:00 +17°C° 0 mm 3 mps 763 mmHg 55%
    22:00 +16°C° 0 mm 3 mps 763 mmHg 57%
    23:00 +16°C° 0 mm 3 mps 763 mmHg 58%

    Day after tomorrow, 20 October, Sunday

    Time Temperature Precipitation Wind Pressure Humidity
    00:00 +14°C° 0 mm 3 mps 763 mmHg 60%
    01:00 +14°C° 0 mm 3 mps 763 mmHg 61%
    02:00 +13°C° 0 mm 3 mps 763 mmHg 62%
    03:00 +13°C° 0 mm 3 mps 763 mmHg 63%
    04:00 +13°C° 0 mm 3 mps 763 mmHg 64%
    05:00 +12°C° 0 mm 4 mps 764 mmHg 66%
    06:00 +12°C° 0 mm 4 mps 764 mmHg 67%
    07:00 +13°C° 0 mm 4 mps 764 mmHg 64%
    08:00 +14°C° 0 mm 4 mps 764 mmHg 61%
    09:00 +15°C° 0 mm 5 mps 764 mmHg 58%
    10:00 +17°C° 0 mm 4 mps 764 mmHg 53%
    11:00 +19°C° 0 mm 4 mps 764 mmHg 49%
    12:00 +21°C° 0 mm 4 mps 765 mmHg 44%
    13:00 +21°C° 0 mm 4 mps 764 mmHg 43%
    14:00 +22°C° 0 mm 4 mps 764 mmHg 41%
    15:00 +22°C° 0 mm 4 mps 764 mmHg 40%
    16:00 +21°C° 0 mm 4 mps 764 mmHg 43%
    17:00 +20°C° 0 mm 4 mps 764 mmHg 46%
    18:00 +19°C° 0 mm 4 mps 764 mmHg 49%
    19:00 +18°C° 0 mm 4 mps 764 mmHg 51%
    20:00 +17°C° 0 mm 4 mps 765 mmHg 53%
    21:00 +17°C° 0 mm 4 mps 765 mmHg 55%
    22:00 +15°C° 0 mm 4 mps 765 mmHg 57%
    23:00 +15°C° 0 mm 4 mps 765 mmHg 59%

    21 October, Monday

    Time Temperature Precipitation Wind Pressure Humidity
    00:00 +14°C° 0 mm 4 mps 765 mmHg 61%
    01:00 +14°C° 0 mm 4 mps 765 mmHg 63%
    02:00 +13°C° 0 mm 4 mps 765 mmHg 64%
    03:00 +13°C° 0 mm 4 mps 765 mmHg 66%
    04:00 +12°C° 0 mm 4 mps 765 mmHg 67%
    05:00 +12°C° 0 mm 4 mps 765 mmHg 69%
    06:00 +12°C° 0 mm 4 mps 765 mmHg 70%
    07:00 +13°C° 0 mm 4 mps 765 mmHg 68%
    08:00 +13°C° 0 mm 4 mps 765 mmHg 66%
    09:00 +14°C° 0 mm 5 mps 766 mmHg 64%
    10:00 +16°C° 0 mm 5 mps 766 mmHg 58%
    11:00 +17°C° 0 mm 5 mps 766 mmHg 52%
    12:00 +20°C° 0 mm 5 mps 765 mmHg 46%
    13:00 +21°C° 0 mm 5 mps 765 mmHg 44%
    14:00 +21°C° 0 mm 4 mps 765 mmHg 42%
    15:00 +21°C° 0 mm 4 mps 765 mmHg 40%
    16:00 +20°C° 0 mm 4 mps 765 mmHg 44%
    17:00 +19°C° 0 mm 4 mps 764 mmHg 47%
    18:00 +18°C° 0 mm 3 mps 764 mmHg 51%
    19:00 +17°C° 0 mm 4 mps 765 mmHg 54%
    20:00 +17°C° 0 mm 4 mps 765 mmHg 57%
    21:00 +15°C° 0 mm 4 mps 765 mmHg 60%
    22:00 +14°C° 0 mm 4 mps 765 mmHg 62%
    23:00 +14°C° 0 mm 3 mps 765 mmHg 64%

    22 October, Tuesday

    Time Temperature Precipitation Wind Pressure Humidity
    00:00 +13°C° 0 mm 3 mps 764 mmHg 66%
    01:00 +13°C° 0 mm 3 mps 764 mmHg 67%
    02:00 +12°C° 0 mm 3 mps 764 mmHg 69%
    03:00 +12°C° 0 mm 3 mps 764 mmHg 70%
    04:00 +11°C° 0 mm 3 mps 764 mmHg 71%
    05:00 +11°C° 0 mm 3 mps 764 mmHg 72%
    06:00 +11°C° 0 mm 3 mps 764 mmHg 73%
    07:00 +11°C° 0 mm 3 mps 764 mmHg 70%
    08:00 +12°C° 0 mm 3 mps 764 mmHg 66%
    09:00 +13°C° 0 mm 4 mps 764 mmHg 62%
    10:00 +16°C° 0 mm 3 mps 764 mmHg 56%
    11:00 +17°C° 0 mm 3 mps 764 mmHg 51%
    12:00 +19°C° 0 mm 3 mps 764 mmHg 45%
    13:00 +19°C° 0 mm 3 mps 763 mmHg 42%
    14:00 +20°C° 0 mm 2 mps 763 mmHg 40%
    15:00 +20°C° 0 mm 2 mps 762 mmHg 38%
    16:00 +19°C° 0 mm 2 mps 762 mmHg 41%
    17:00 +19°C° 0 mm 1 mps 762 mmHg 44%
    18:00 +18°C° 0 mm 1 mps 762 mmHg 46%
    19:00 +18°C° 0 mm 1 mps 762 mmHg 48%
    20:00 +16°C° 0 mm 1 mps 762 mmHg 50%
    21:00 +15°C° 0 mm 1 mps 762 mmHg 52%
    22:00 +15°C° 0 mm 1 mps 762 mmHg 54%
    23:00 +15°C° 0 mm 1 mps 762 mmHg 55%

    23 October, Wednesday

    Time Temperature Precipitation Wind Pressure Humidity
    00:00 +13°C° 0 mm 0 mps 762 mmHg 57%
    01:00 +13°C° 0 mm 0 mps 762 mmHg 58%
    02:00 +14°C° 0 mm 1 mps 762 mmHg 59%
    03:00 +14°C° 0 mm 1 mps 762 mmHg 59%
    04:00 +13°C° 0 mm 1 mps 762 mmHg 60%
    05:00 +13°C° 0 mm 1 mps 762 mmHg 60%
    06:00 +13°C° 0 mm 2 mps 762 mmHg 61%
    07:00 +14°C° 0 mm 2 mps 762 mmHg 60%
    08:00 +13°C° 0 mm 3 mps 763 mmHg 60%
    09:00 +14°C° 0 mm 3 mps 763 mmHg 59%
    10:00 +16°C° 0 mm 3 mps 763 mmHg 59%
    11:00 +18°C° 0 mm 3 mps 763 mmHg 59%
    12:00 +19°C° 0 mm 4 mps 763 mmHg 58%
    13:00 +19°C° 0 mm 4 mps 763 mmHg 58%
    14:00 +19°C° 0 mm 4 mps 763 mmHg 58%
    15:00 +19°C° 0 mm 4 mps 763 mmHg 58%
    16:00 +18°C° 0 mm 4 mps 763 mmHg 60%
    17:00 +17°C° 0 mm 3 mps 764 mmHg 61%
    18:00 +17°C° 0 mm 3 mps 764 mmHg 63%
    19:00 +15°C° 0 mm 4 mps 764 mmHg 65%
    20:00 +14°C° 0 mm 4 mps 764 mmHg 67%
    21:00 +13°C° 0 mm 4 mps 765 mmHg 70%
    22:00 +13°C° 0 mm 4 mps 765 mmHg 68%
    23:00 +13°C° 0 mm 4 mps 765 mmHg 66%
    Show more